When you browse on this site, cookies collect data to enhance your experience and personalize the content and advertising you see.
Visit our Privacy Policy to learn more. By continuing to use the site, you agree to this use of cookies and data.

Hourly Weather Tapachula

Today, 23 September, Wednesday

Time Temperature Precipitation Wind Pressure Humidity
00:00 +26°C° 0.4 mm 2 mps 747 mmHg 89%
01:00 +26°C° 0.4 mm 2 mps 747 mmHg 88%
02:00 +26°C° 0.4 mm 2 mps 747 mmHg 87%
03:00 +26°C° 0.4 mm 2 mps 747 mmHg 87%
04:00 +26°C° 0.2 mm 2 mps 747 mmHg 86%
05:00 +26°C° 0.2 mm 2 mps 747 mmHg 85%
06:00 +26°C° 0.2 mm 2 mps 747 mmHg 83%
07:00 +28°C° 0 mm 1 mps 747 mmHg 78%
08:00 +29°C° 0 mm 1 mps 747 mmHg 73%
09:00 +31°C° 0 mm 1 mps 748 mmHg 68%
10:00 +32°C° 0.1 mm 1 mps 747 mmHg 67%
11:00 +33°C° 0.1 mm 1 mps 747 mmHg 66%
12:00 +34°C° 0.1 mm 2 mps 747 mmHg 65%
13:00 +32°C° 0.5 mm 2 mps 746 mmHg 69%
14:00 +32°C° 0.5 mm 2 mps 746 mmHg 73%
15:00 +31°C° 0.5 mm 2 mps 745 mmHg 77%
16:00 +30°C° 0.2 mm 1 mps 745 mmHg 80%
17:00 +30°C° 0.2 mm 1 mps 745 mmHg 83%
18:00 +27°C° 0.2 mm 0 mps 745 mmHg 85%
19:00 +26°C° 0.2 mm 0 mps 746 mmHg 86%
20:00 +28°C° 0.2 mm 1 mps 747 mmHg 87%
21:00 +28°C° 0.2 mm 1 mps 748 mmHg 88%
22:00 +28°C° 0.5 mm 1 mps 747 mmHg 88%
23:00 +27°C° 0.5 mm 1 mps 747 mmHg 89%

Tomorrow, 24 September, Thursday

Time Temperature Precipitation Wind Pressure Humidity
00:00 +27°C° 0.5 mm 1 mps 747 mmHg 89%
01:00 +27°C° 1.8 mm 1 mps 747 mmHg 90%
02:00 +26°C° 1.8 mm 1 mps 747 mmHg 90%
03:00 +26°C° 1.8 mm 1 mps 747 mmHg 91%
04:00 +26°C° 2.4 mm 1 mps 747 mmHg 91%
05:00 +26°C° 2.4 mm 2 mps 747 mmHg 91%
06:00 +25°C° 2.4 mm 2 mps 746 mmHg 91%
07:00 +27°C° 0.1 mm 1 mps 747 mmHg 85%
08:00 +29°C° 0.1 mm 1 mps 747 mmHg 80%
09:00 +31°C° 0.1 mm 1 mps 748 mmHg 74%
10:00 +32°C° 0.1 mm 1 mps 747 mmHg 71%
11:00 +32°C° 0.1 mm 1 mps 747 mmHg 67%
12:00 +34°C° 0.1 mm 2 mps 747 mmHg 64%
13:00 +34°C° 0.7 mm 2 mps 746 mmHg 68%
14:00 +32°C° 0.7 mm 2 mps 746 mmHg 72%
15:00 +31°C° 0.7 mm 2 mps 745 mmHg 77%
16:00 +30°C° 2.1 mm 1 mps 745 mmHg 80%
17:00 +29°C° 2.1 mm 1 mps 746 mmHg 84%
18:00 +26°C° 2.1 mm 0 mps 746 mmHg 88%
19:00 +26°C° 0.9 mm 0 mps 747 mmHg 88%
20:00 +27°C° 0.9 mm 1 mps 747 mmHg 89%
21:00 +27°C° 0.9 mm 1 mps 748 mmHg 89%
22:00 +27°C° 0.8 mm 1 mps 748 mmHg 89%
23:00 +27°C° 0.8 mm 1 mps 748 mmHg 89%

Day after tomorrow, 25 September, Friday

Time Temperature Precipitation Wind Pressure Humidity
00:00 +26°C° 0.8 mm 2 mps 748 mmHg 89%
01:00 +26°C° 0.5 mm 2 mps 748 mmHg 88%
02:00 +26°C° 0.5 mm 2 mps 747 mmHg 88%
03:00 +26°C° 0.5 mm 2 mps 747 mmHg 87%
04:00 +26°C° 0.1 mm 2 mps 747 mmHg 86%
05:00 +26°C° 0.1 mm 1 mps 747 mmHg 86%
06:00 +26°C° 0.1 mm 1 mps 747 mmHg 85%
07:00 +27°C° 0 mm 1 mps 748 mmHg 81%
08:00 +29°C° 0 mm 1 mps 748 mmHg 77%
09:00 +30°C° 0 mm 1 mps 748 mmHg 73%
10:00 +31°C° 0.2 mm 1 mps 748 mmHg 72%
11:00 +32°C° 0.2 mm 2 mps 748 mmHg 71%
12:00 +32°C° 0.2 mm 2 mps 748 mmHg 69%
13:00 +32°C° 1.3 mm 2 mps 747 mmHg 73%
14:00 +31°C° 1.3 mm 2 mps 746 mmHg 77%
15:00 +30°C° 1.3 mm 2 mps 746 mmHg 81%
16:00 +29°C° 2.2 mm 2 mps 746 mmHg 85%
17:00 +28°C° 2.2 mm 1 mps 746 mmHg 89%
18:00 +27°C° 2.2 mm 1 mps 746 mmHg 93%
19:00 +27°C° 0.7 mm 1 mps 747 mmHg 93%
20:00 +26°C° 0.7 mm 1 mps 748 mmHg 93%
21:00 +26°C° 0.7 mm 1 mps 748 mmHg 93%
22:00 +26°C° 0.2 mm 1 mps 748 mmHg 92%
23:00 +26°C° 0.2 mm 1 mps 748 mmHg 91%

26 September, Saturday

Time Temperature Precipitation Wind Pressure Humidity
00:00 +26°C° 0.2 mm 1 mps 748 mmHg 90%
01:00 +26°C° 0.2 mm 1 mps 748 mmHg 90%
02:00 +26°C° 0.2 mm 1 mps 747 mmHg 90%
03:00 +26°C° 0.2 mm 1 mps 746 mmHg 90%
04:00 +26°C° 0.1 mm 1 mps 747 mmHg 90%
05:00 +26°C° 0.1 mm 1 mps 747 mmHg 89%
06:00 +26°C° 0.1 mm 1 mps 747 mmHg 88%
07:00 +27°C° 0.1 mm 1 mps 747 mmHg 86%
08:00 +28°C° 0.1 mm 1 mps 748 mmHg 83%
09:00 +29°C° 0.1 mm 1 mps 748 mmHg 81%
10:00 +29°C° 1.2 mm 2 mps 748 mmHg 81%
11:00 +30°C° 1.2 mm 2 mps 747 mmHg 80%
12:00 +30°C° 1.2 mm 2 mps 747 mmHg 80%
13:00 +30°C° 2.9 mm 2 mps 746 mmHg 82%
14:00 +30°C° 2.9 mm 2 mps 745 mmHg 84%
15:00 +29°C° 2.9 mm 2 mps 745 mmHg 85%
16:00 +28°C° 2.2 mm 1 mps 745 mmHg 88%
17:00 +27°C° 2.2 mm 1 mps 745 mmHg 90%
18:00 +25°C° 2.2 mm 0 mps 745 mmHg 92%
19:00 +26°C° 0.9 mm 1 mps 746 mmHg 92%
20:00 +26°C° 0.9 mm 1 mps 746 mmHg 91%
21:00 +26°C° 0.9 mm 1 mps 747 mmHg 91%
22:00 +26°C° 0.4 mm 1 mps 747 mmHg 90%
23:00 +26°C° 0.4 mm 1 mps 747 mmHg 90%

27 September, Sunday

Time Temperature Precipitation Wind Pressure Humidity
00:00 +26°C° 0.4 mm 1 mps 747 mmHg 89%
01:00 +26°C° 0.1 mm 1 mps 747 mmHg 88%
02:00 +25°C° 0.1 mm 1 mps 746 mmHg 88%
03:00 +25°C° 0.1 mm 1 mps 746 mmHg 88%
04:00 +25°C° 0 mm 1 mps 746 mmHg 87%
05:00 +25°C° 0 mm 1 mps 746 mmHg 86%
06:00 +25°C° 0 mm 1 mps 746 mmHg 85%
07:00 +27°C° 0 mm 1 mps 746 mmHg 81%
08:00 +28°C° 0 mm 1 mps 747 mmHg 76%
09:00 +30°C° 0 mm 1 mps 747 mmHg 72%
10:00 +31°C° 0.2 mm 1 mps 747 mmHg 71%
11:00 +31°C° 0.2 mm 1 mps 747 mmHg 70%
12:00 +32°C° 0.2 mm 2 mps 746 mmHg 69%
13:00 +31°C° 1.4 mm 2 mps 745 mmHg 73%
14:00 +31°C° 1.4 mm 2 mps 745 mmHg 78%
15:00 +30°C° 1.4 mm 2 mps 744 mmHg 82%
16:00 +29°C° 3.1 mm 2 mps 744 mmHg 85%
17:00 +28°C° 3.1 mm 1 mps 745 mmHg 88%
18:00 +27°C° 3.1 mm 1 mps 745 mmHg 91%
19:00 +27°C° 1.8 mm 1 mps 746 mmHg 91%
20:00 +27°C° 1.8 mm 1 mps 746 mmHg 91%
21:00 +26°C° 1.8 mm 2 mps 747 mmHg 91%
22:00 +26°C° 0.4 mm 2 mps 747 mmHg 91%
23:00 +26°C° 0.4 mm 1 mps 747 mmHg 90%

28 September, Monday

Time Temperature Precipitation Wind Pressure Humidity
00:00 +26°C° 0.4 mm 1 mps 747 mmHg 90%
01:00 +25°C° 0.2 mm 2 mps 746 mmHg 89%
02:00 +25°C° 0.2 mm 2 mps 746 mmHg 88%
03:00 +25°C° 0.2 mm 2 mps 745 mmHg 87%
04:00 +25°C° 0 mm 2 mps 745 mmHg 86%
05:00 +25°C° 0 mm 2 mps 745 mmHg 85%
06:00 +25°C° 0 mm 2 mps 746 mmHg 84%
07:00 +27°C° 0 mm 1 mps 746 mmHg 79%
08:00 +28°C° 0 mm 1 mps 746 mmHg 74%
09:00 +30°C° 0 mm 1 mps 746 mmHg 69%
10:00 +31°C° 0 mm 1 mps 746 mmHg 68%
11:00 +32°C° 0 mm 2 mps 746 mmHg 67%
12:00 +34°C° 0 mm 2 mps 745 mmHg 66%
13:00 +32°C° 1 mm 2 mps 744 mmHg 71%
14:00 +31°C° 1 mm 2 mps 744 mmHg 75%
15:00 +31°C° 1 mm 2 mps 743 mmHg 80%
16:00 +30°C° 2.5 mm 2 mps 744 mmHg 83%
17:00 +29°C° 2.5 mm 2 mps 744 mmHg 86%
18:00 +28°C° 2.5 mm 1 mps 745 mmHg 89%
19:00 +27°C° 3.5 mm 1 mps 745 mmHg 90%
20:00 +27°C° 3.5 mm 1 mps 746 mmHg 91%
21:00 +26°C° 3.5 mm 2 mps 747 mmHg 92%
22:00 +26°C° 4.3 mm 2 mps 747 mmHg 93%
23:00 +26°C° 4.3 mm 2 mps 747 mmHg 94%
Show more